Location: The Saddle
(36.8333°N, 80.3417°W)
Time: 17:11:04
(UTC-05:00)

A-11 Canister half - Pass Details

Date: 19 December 2023
Orbit: 1526 x 1682 km, 47.3° (Epoch: 01 March)

Event Time Altitude Azimuth Distance (km) Brightness Sun altitude
Rises 00:43:17 0° 288° (WNW) 4,907 - -75.5°
Reaches altitude 10° 00:48:53 10° 263° (W) 3,887 - -75.0°
Maximum altitude 00:52:49 13° 239° (WSW) 3,618 - -74.6°
Drops below altitude 10° 00:56:44 10° 215° (SW) 3,832 - -74.2°
Sets 01:02:14 0° 190° (S) 4,775 - -73.6°
